Content
SEND FEEDBACK

Spain Flag

ZARAGOZA, SPAIN


Home > Europe > Spain
Elevation: 846 feet     Latitude: 41 40N     Longitude: 001 01W

WEATHER
 
SELECT A DAY
Number of Records: 347,895;   Date Range: 7/1/96 - 3/22/16
 
SHARE

PRINT THIS DATA

[ ← Previous Day ]
WEATHER ALMANAC - APRIL 30, 2013
[ Next Day → ]
[ °C ]   °F
Weather ElementAverageHighLow
Temperature50.1 °F60.8 °F (5:30 pm)42.8 °F (6:00 am)
Dewpoint43.2 °F46.4 °F (2:30 pm)39.2 °F (6:30 am)
Humidity78.3 %100 % (8:30 am)48 % (5:30 pm)
Barometer29.90 in29.98 in (11:30 pm)29.86 in (3:00 am)
Wind Speed6.9 mph19.6 mph (8:00 pm)
Weather ElementAverage
Visibility6.2 mi
Wind DirectionESE (127.7 °)

Weather ElementTotal
Precipitation---
Heating Degree Days13.2 (Base 65)
Growing Degree Days1.8 (Base 50)
Averaged from 48 records on April 30, 2013
WEATHER CONDITIONS BREAKOUT
WIND DIRECTION BREAKOUT
WEATHER BY HOUR - APRIL 30, 2013
[ °C ]   °F
Local TimeTemperatureDewpointHumidityBarometerVisibilityWind DirectionWind SpeedGust SpeedPrecipitationEventsConditions
1:00 AM44.6 °F41.0 °F87 %29.89 in5.6 miWNW (300°)13.8 mphScattered Clouds
1:30 AM44.6 °F41.0 °F87 %29.89 in5.6 miWNW (290°)12.7 mphScattered Clouds
2:00 AM47.0 °F43.0 °F79 %29.90 in6.0 miWest (280°)13.8 mphPartly Cloudy
2:00 AM44.6 °F41.0 °F87 %29.89 in5.6 miWNW (290°)15.0 mphScattered Clouds
2:30 AM44.6 °F41.0 °F87 %29.89 in5.6 miWest (280°)12.7 mphScattered Clouds
3:00 AM44.6 °F41.0 °F87 %29.86 in5.6 miWest (270°)12.7 mphScattered Clouds
3:30 AM44.6 °F42.8 °F93 %29.86 in5.6 miWest (270°)12.7 mphRainLight Rain
4:00 AM44.6 °F42.8 °F93 %29.86 in5.6 miWest (270°)11.5 mphRainLight Rain
4:30 AM44.6 °F42.8 °F93 %29.86 in5.6 miWest (280°)9.2 mphRainLight Rain
5:00 AM44.6 °F42.8 °F93 %29.86 in5.6 miWest (260°)8.1 mphRainLight Rain
6:00 AM42.8 °F41.0 °F93 %29.86 in6.2 miWest (260°)6.9 mphScattered Clouds
6:30 AM42.8 °F39.2 °F87 %29.86 in6.2 miWSW (250°)5.8 mphScattered Clouds
7:00 AM42.8 °F41.0 °F93 %29.89 in6.2 miWSW (250°)3.5 mphScattered Clouds
7:30 AM42.8 °F41.0 °F93 %29.89 in6.2 miNorth (360°)2.3 mphMostly Cloudy
8:00 AM45.0 °F44.0 °F94 %29.92 in12.0 miNNW (330°)3.5 mphPartly Cloudy
8:00 AM44.6 °F42.8 °F93 %29.89 in6.2 miVariable2.3 mphMostly Cloudy
8:30 AM44.6 °F44.6 °F100 %29.92 in6.2 miVariable1.2 mphMostly Cloudy
9:00 AM44.6 °F42.8 °F93 %29.92 in6.2 miCalmMostly Cloudy
9:30 AM46.4 °F44.6 °F93 %29.92 in6.2 miVariable1.2 mphMostly Cloudy
10:00 AM46.4 °F42.8 °F87 %29.92 in6.2 miCalmMostly Cloudy
10:30 AM48.2 °F42.8 °F82 %29.92 in6.2 miVariable2.3 mphMostly Cloudy
11:00 AM48.2 °F42.8 °F82 %29.92 in6.2 miVariable2.3 mphMostly Cloudy
11:30 AM50.0 °F42.8 °F76 %29.92 in6.2 miVariable2.3 mphMostly Cloudy
12:00 PM50.0 °F44.6 °F82 %29.95 in6.2 miCalmMostly Cloudy
1:30 PM53.6 °F44.6 °F72 %29.92 in6.2 miVariable2.3 mphMostly Cloudy
2:00 PM57.0 °F45.0 °F54 %29.93 in19.0 miSE (130°)2.3 mphMostly Cloudy
2:00 PM55.4 °F42.8 °F63 %29.92 in6.2 miESE (120°)1.2 mphMostly Cloudy
2:30 PM57.2 °F46.4 °F67 %29.92 in6.2 miNNE (20°)4.6 mphMostly Cloudy
3:00 PM57.2 °F44.6 °F63 %29.92 in6.2 miNE (50°)5.8 mphMostly Cloudy
3:30 PM59.0 °F42.8 °F55 %29.92 in6.2 miEast (100°)3.5 mphMostly Cloudy
4:00 PM59.0 °F42.8 °F55 %29.89 in6.2 miENE (70°)4.6 mphScattered Clouds
4:30 PM59.0 °F42.8 °F55 %29.89 in6.2 miENE (60°)8.1 mphScattered Clouds
5:00 PM59.0 °F44.6 °F59 %29.89 in6.2 miEast (80°)8.1 mphScattered Clouds
5:30 PM60.8 °F41.0 °F48 %29.89 in6.2 miNNE (20°)4.6 mphScattered Clouds
6:00 PM60.8 °F41.0 °F48 %29.86 in6.2 miNNE (30°)4.6 mphScattered Clouds
6:30 PM59.0 °F44.6 °F59 %29.89 in6.2 miENE (60°)6.9 mphScattered Clouds
7:00 PM59.0 °F42.8 °F55 %29.89 in6.2 miESE (110°)9.2 mphMostly Cloudy
7:30 PM57.2 °F44.6 °F63 %29.89 in6.2 miESE (110°)15.0 mphMostly Cloudy
8:00 PM56.0 °F46.0 °F59 %29.90 in6.0 miSE (130°)16.1 mphMostly Cloudy
8:00 PM53.6 °F44.6 °F72 %29.89 in6.2 miSE (130°)19.6 mphMostly Cloudy
8:30 PM51.8 °F44.6 °F76 %29.92 in6.2 miSSE (150°)18.4 mphThunderstormThunderstorm
9:00 PM51.8 °F42.8 °F71 %29.92 in6.2 miESE (110°)9.2 mphMostly Cloudy
9:30 PM50.0 °F44.6 °F82 %29.92 in5.0 miSE (130°)9.2 mphRainLight Rain
10:00 PM48.2 °F44.6 °F87 %29.95 in5.0 miEast (80°)5.8 mphRainLight Rain
10:16 PM48.2 °F44.6 °F87 %29.95 in5.0 miEast (80°)3.5 mphRainRain
10:30 PM48.2 °F44.6 °F87 %29.95 in3.1 miVariable2.3 mphRainRain
11:00 PM48.2 °F46.4 °F93 %29.95 in3.1 miNE (50°)3.5 mphRainHeavy Rain
11:30 PM48.2 °F46.4 °F93 %29.98 in3.1 miENE (70°)4.6 mphRainRain
Hourly data recorded from LEZG, located miles away from Zaragoza, Spain




STORIES FROM OUR PARTNERS